Stations météo

réclame
Mon MeteoGroup
Berlin/Tegel, Allemagne (10382): Température de l'air & dewpoint: 14.06.2018 07:00:00 - 20.06.2018 07:00:00 (CEST)Berlin/Tegel, Allemagne (10382): Température de l'air 5cm & Température de l'air -5cm: 14.06.2018 07:00:00 - 20.06.2018 07:00:00 (CEST)Berlin/Tegel, Allemagne (10382): Température de l'air -20cm & Température de l'air -100cm: 14.06.2018 07:00:00 - 20.06.2018 07:00:00 (CEST)Berlin/Tegel, Allemagne (10382): Vitesse du vent & gusts: 14.06.2018 07:00:00 - 20.06.2018 07:00:00 (CEST)Berlin/Tegel, Allemagne (10382): Direction du vent: 14.06.2018 07:00:00 - 20.06.2018 07:00:00 (CEST)Berlin/Tegel, Allemagne (10382): reduced air pressure: 14.06.2018 07:00:00 - 20.06.2018 07:00:00 (CEST)Berlin/Tegel, Allemagne (10382): visibility: 14.06.2018 07:00:00 - 20.06.2018 07:00:00 (CEST)Berlin/Tegel, Allemagne (10382): Ensoleillement: 14.06.2018 07:00:00 - 20.06.2018 07:00:00 (CEST)Berlin/Tegel, Allemagne (10382): Quantités de précipitations: 14.06.2018 07:00:00 - 20.06.2018 07:00:00 (CEST)
Date & Time tt [°C] td [°C] tt 5cm [°C] tt -5cm [°C] tt -20cm [°C] tt -100cm [°C] ff [km/h] ff [knt] fx [km/h] fx [knt] dd ppp [hPa] vv [km] sd [min] rr [mm]
20.06.2018 07:00:00 17,9 11,1 18,0 20,7 22,5 19,9 3 2 8 4 ESE 1023,5 30 0 0,0
20.06.2018 06:00:00 17,5 11,1 17,0 20,6 22,7 19,9 4 2 9 5 - 1023,6 10 0 0,0
20.06.2018 05:00:00 17,8 12,4 16,8 20,6 22,9 19,9 4 2 9 5 - 1023,2 10 0 0,0
20.06.2018 04:00:00 15,9 13,9 13,6 20,7 23,2 19,9 3 2 5 3 NNW 1023,1 35 0 0,0
20.06.2018 03:00:00 17,1 13,7 12,9 21,3 23,4 19,9 0 0 9 5 N 1023,2 40 0 0,0
20.06.2018 02:00:00 18,1 14,4 15,9 21,5 23,7 19,9 6 3 11 6 WNW 1023,2 40 0 0,0
20.06.2018 01:00:00 18,1 14,2 15,8 22,0 24,0 19,9 7 4 11 6 WNW 1022,9 45 0 0,0
20.06.2018 00:00:00 18,7 14,1 14,7 22,6 24,2 19,9 5 3 13 7 WNW 1022,8 10 0 0,0
19.06.2018 23:00:00 19,3 13,9 16,2 23,4 24,4 19,9 8 4 18 10 WNW 1022,6 10 0 0,0
19.06.2018 22:00:00 20,5 13,8 16,1 24,5 24,6 19,9 5 3 15 8 W 1021,9 10 0 0,0
19.06.2018 21:00:00 21,9 13,2 20,2 25,6 24,7 19,9 11 6 24 13 WNW 1021,5 10 41 0,0
19.06.2018 20:00:00 22,4 12,9 22,3 26,5 24,7 19,9 15 8 21 11 W 1021,5 10 7 0,0
19.06.2018 19:00:00 22,9 13,0 24,4 26,9 24,7 19,9 16 8 22 12 WNW 1021,5 45 1 0,0
19.06.2018 18:00:00 23,0 13,7 24,8 27,1 24,6 19,9 14 8 28 15 WNW 1021,5 45 0 0,0
19.06.2018 17:00:00 23,2 13,7 25,0 27,9 24,5 19,9 13 7 28 15 WNW 1021,3 45 0 0,0
19.06.2018 16:00:00 23,9 12,6 26,0 29,0 24,2 19,9 15 8 34 18 W 1021,0 40 8 0,0
19.06.2018 15:00:00 24,1 12,2 27,2 29,2 23,9 19,9 23 12 31 17 W 1020,8 40 17 0,0
19.06.2018 14:00:00 23,0 12,1 27,1 28,1 23,6 19,9 15 8 35 19 WNW 1021,0 10 1 0,0
19.06.2018 13:00:00 23,0 11,1 27,5 28,3 23,3 19,9 19 11 32 17 W 1020,9 35 0 0,0
19.06.2018 12:00:00 22,9 11,1 28,0 28,5 22,9 19,9 19 11 35 19 W 1020,7 35 27 0,0
19.06.2018 11:00:00 22,1 11,9 31,2 26,8 22,6 19,9 15 8 34 18 W 1020,8 10 57 0,0
19.06.2018 10:00:00 21,1 12,6 27,8 24,6 22,5 19,9 14 8 31 17 WNW 1020,6 25 60 0,0
19.06.2018 09:00:00 19,1 13,4 24,1 22,3 22,6 19,9 16 9 34 18 W 1020,6 25 43 0,0
19.06.2018 08:00:00 18,1 14,4 19,7 21,3 22,7 19,9 18 10 31 17 W 1020,4 10 8 0,0
19.06.2018 07:00:00 17,1 14,8 16,6 21,1 22,9 19,9 14 7 18 10 WSW 1020,0 25 0 0,0
19.06.2018 06:00:00 16,4 15,0 16,0 21,2 23,1 19,9 13 7 34 18 WNW 1019,9 25 0 0,2
19.06.2018 05:00:00 17,2 13,1 15,5 21,4 23,3 19,9 8 5 13 7 WSW 1019,1 50 0 0,0
19.06.2018 04:00:00 17,6 12,6 15,3 21,9 23,5 19,9 10 6 18 10 WSW 1019,2 50 0 0,0
19.06.2018 03:00:00 19,3 12,6 18,5 22,2 23,8 19,9 15 8 21 11 WSW 1019,2 50 0 0,0
19.06.2018 02:00:00 19,4 12,5 18,4 22,3 24,0 19,9 13 7 16 9 W 1019,3 50 0 0,0
19.06.2018 01:00:00 18,8 12,4 16,2 22,7 24,3 19,9 5 3 9 5 SW 1019,3 50 0 0,0
19.06.2018 00:00:00 19,3 12,2 15,8 23,4 24,5 19,9 6 3 11 6 SW 1019,4 50 0 0,0
18.06.2018 23:00:00 20,4 12,3 18,0 24,1 24,7 19,9 9 5 11 6 SSW 1019,4 50 0 0,0
18.06.2018 22:00:00 20,6 11,7 18,4 25,0 24,9 19,9 9 5 18 10 W 1019,2 50 0 0,0
18.06.2018 21:00:00 21,9 11,4 20,4 26,1 25,0 19,9 13 7 25 13 W 1018,7 50 17 0,0
18.06.2018 20:00:00 22,6 11,1 23,1 26,9 25,0 19,9 18 10 25 14 W 1018,6 10 0 0,0
18.06.2018 19:00:00 23,1 9,8 23,6 27,7 24,9 19,9 21 11 33 18 WSW 1018,7 10 0 0,0
18.06.2018 18:00:00 23,3 9,2 24,6 28,6 24,7 19,9 16 9 29 16 WSW 1018,9 10 0 0,0
18.06.2018 17:00:00 23,6 8,8 26,1 29,3 24,4 19,9 18 10 34 18 WSW 1019,0 45 20 0,0
18.06.2018 16:00:00 23,4 8,8 27,5 29,0 24,1 19,9 16 9 35 19 W 1019,4 45 6 0,0
18.06.2018 15:00:00 22,2 8,1 25,9 29,4 23,6 19,9 23 12 34 18 WSW 1019,6 45 23 0,0
18.06.2018 14:00:00 23,0 9,1 30,0 28,7 23,2 19,9 18 10 34 18 SW 1019,7 10 28 0,0
18.06.2018 13:00:00 21,8 9,0 27,4 27,3 22,8 19,9 16 9 29 16 WSW 1019,8 10 42 0,0
18.06.2018 12:00:00 20,8 10,0 27,4 25,2 22,6 19,9 16 9 26 14 W 1020,1 10 1 0,0
18.06.2018 11:00:00 19,5 10,5 24,1 23,5 22,5 19,9 16 8 22 12 W 1020,1 40 1 0,0
18.06.2018 10:00:00 18,8 10,1 20,6 22,9 22,4 19,9 9 5 13 7 WSW 1020,2 10 13 0,0
18.06.2018 09:00:00 17,7 10,6 19,3 21,5 22,4 19,8 9 5 16 9 W 1019,8 10 0 0,0
18.06.2018 08:00:00 16,9 10,5 18,1 20,7 22,6 19,8 5 3 9 5 WNW 1019,6 10 0 0,0
18.06.2018 07:00:00 16,1 9,9 18,2 19,8 22,9 19,8 5 3 9 5 W 1019,1 10 54 0,0
18.06.2018 06:00:00 13,5 8,5 12,9 19,4 23,3 19,8 5 3 13 7 W 1018,9 10 23 0,0
18.06.2018 05:00:00 12,2 8,0 8,4 19,8 23,7 19,8 8 4 8 4 WSW 1018,9 10 0 0,0
18.06.2018 04:00:00 11,8 7,8 8,3 20,4 24,1 19,8 8 4 8 4 W 1018,6 10 0 0,0
18.06.2018 03:00:00 14,7 8,2 8,4 21,1 24,5 19,8 4 2 5 3 WNW 1018,5 10 0 0,0
18.06.2018 02:00:00 16,2 8,0 12,6 21,8 24,9 19,8 5 3 15 8 N 1018,4 10 0 0,0
18.06.2018 01:00:00 15,2 7,5 9,4 22,5 25,3 19,8 5 3 9 5 W 1018,1 50 0 0,0
18.06.2018 00:00:00 15,9 7,5 9,7 23,6 25,8 19,7 2 1 8 4 W 1017,8 50 0 0,0
17.06.2018 23:00:00 17,6 7,5 11,6 24,8 26,1 19,7 5 3 11 6 WNW 1017,4 50 0 0,0
17.06.2018 22:00:00 19,8 7,4 16,4 26,2 26,4 19,7 9 5 16 9 WNW 1017,3 10 0 0,0
17.06.2018 21:00:00 21,3 7,3 19,7 27,5 26,6 19,7 11 6 30 16 WNW 1016,7 10 26 0,0
17.06.2018 20:00:00 22,4 7,5 21,8 28,7 26,7 19,7 13 7 31 17 WNW 1016,1 10 10 0,0
17.06.2018 19:00:00 23,7 7,2 24,8 30,2 26,6 19,7 18 10 39 21 WNW 1015,5 50 37 0,0
17.06.2018 18:00:00 24,9 9,0 27,9 31,3 26,4 19,7 18 10 36 19 WNW 1015,1 10 37 0,0
17.06.2018 17:00:00 24,7 9,0 28,9 32,4 26,0 19,7 21 11 40 22 WNW 1015,0 50 44 0,0
17.06.2018 16:00:00 25,1 10,5 29,5 32,8 25,6 19,7 25 13 36 20 W 1014,4 40 56 0,0
17.06.2018 15:00:00 23,8 12,2 29,8 32,1 25,1 19,7 20 11 35 19 WNW 1014,8 40 44 0,0
17.06.2018 14:00:00 24,8 12,5 34,4 30,5 24,7 19,7 24 13 35 19 W 1014,7 45 29 0,0
17.06.2018 13:00:00 23,9 12,8 30,8 30,5 24,2 19,7 15 8 34 18 WNW 1014,7 10 30 0,0
17.06.2018 12:00:00 23,4 13,3 30,4 30,0 23,7 19,7 16 9 29 16 WNW 1014,8 10 52 0,0
17.06.2018 11:00:00 23,5 13,2 32,6 28,2 23,3 19,7 16 9 29 16 W 1014,8 10 59 0,0
17.06.2018 10:00:00 22,9 12,8 30,2 26,3 23,1 19,7 16 9 24 13 WNW 1014,7 10 60 0,0
17.06.2018 09:00:00 21,8 12,4 28,8 24,2 23,0 19,7 9 5 18 10 W 1014,1 10 60 0,0
17.06.2018 08:00:00 21,2 12,0 24,7 22,3 23,1 19,7 14 8 22 12 W 1013,9 35 55 0,0
17.06.2018 07:00:00 20,9 12,1 21,9 21,4 23,4 19,6 5 3 11 6 S 1013,5 10 59 0,0
17.06.2018 06:00:00 19,0 11,5 15,9 21,3 23,7 19,6 3 1 9 5 S 1013,3 35 12 0,0
17.06.2018 05:00:00 18,0 11,0 15,9 21,7 24,0 19,6 9 5 13 7 SE 1013,4 35 0 0,0
17.06.2018 04:00:00 18,3 10,9 15,4 22,3 24,3 19,6 4 2 13 7 SE 1013,7 10 0 0,0
17.06.2018 03:00:00 19,3 10,7 16,8 22,9 24,6 19,6 7 4 9 5 SE 1013,8 40 0 0,0
17.06.2018 02:00:00 19,9 11,1 17,8 23,3 24,9 19,6 5 3 8 4 SE 1013,8 10 0 0,0
17.06.2018 01:00:00 19,8 11,5 18,0 23,8 25,2 19,6 8 4 11 6 SSE 1013,9 10 0 0,0
17.06.2018 00:00:00 21,4 11,3 16,9 24,7 25,5 19,6 2 1 11 6 E 1013,9 40 0 0,0
16.06.2018 23:00:00 22,3 11,0 19,9 25,7 25,8 19,6 8 5 14 8 SSE 1013,9 40 0 0,0
16.06.2018 22:00:00 23,7 10,7 22,0 26,6 26,0 19,6 9 5 13 7 SSE 1013,9 10 0 0,0
16.06.2018 21:00:00 24,7 10,6 23,6 27,6 26,1 19,6 9 5 20 11 SE 1013,6 10 0 0,0
16.06.2018 20:00:00 25,4 10,2 24,5 28,7 26,1 19,6 8 4 21 11 SSE 1013,6 10 0 0,0
16.06.2018 19:00:00 25,9 10,7 26,6 29,8 26,0 19,6 9 5 16 9 SSW 1013,7 10 10 0,0
16.06.2018 18:00:00 25,9 10,3 27,2 30,6 25,8 19,6 10 5 24 13 S 1013,9 40 11 0,0
16.06.2018 17:00:00 25,9 10,8 28,7 31,0 25,5 19,6 13 7 19 10 SE 1014,4 40 18 0,0
16.06.2018 16:00:00 26,1 11,0 29,0 31,2 25,1 19,6 13 7 28 15 - 1014,7 10 19 0,0
16.06.2018 15:00:00 25,6 9,2 30,6 30,9 24,6 19,6 10 6 22 12 SSE 1015,1 35 10 0,0
16.06.2018 14:00:00 26,1 9,4 33,3 30,8 24,0 19,6 15 8 29 16 SE 1015,6 10 30 0,0
16.06.2018 13:00:00 24,6 10,6 29,3 30,0 23,4 19,6 7 4 24 13 ESE 1016,4 40 25 0,0
16.06.2018 12:00:00 24,1 11,9 33,0 28,4 22,9 19,6 8 4 21 11 S 1016,9 10 21 0,0
16.06.2018 11:00:00 22,7 12,9 29,0 26,4 22,6 19,6 9 5 18 10 SSE 1017,1 10 16 0,0
16.06.2018 10:00:00 21,7 12,5 26,3 24,3 22,4 19,6 9 5 16 9 SSE 1017,1 10 4 0,0
16.06.2018 09:00:00 20,4 12,8 23,0 22,6 22,4 19,6 8 4 15 8 SE 1017,2 40 0 0,0
16.06.2018 08:00:00 19,5 13,2 20,9 21,8 22,5 19,6 4 2 11 6 ESE 1017,1 40 0 0,0
16.06.2018 07:00:00 18,9 13,2 19,1 21,3 22,7 19,6 5 3 7 4 E 1017,2 40 0 0,0
16.06.2018 06:00:00 18,1 12,8 17,2 21,2 22,9 19,5 2 1 4 2 NNE 1017,3 40 0 0,0
16.06.2018 05:00:00 18,1 12,4 16,2 21,3 23,1 19,5 4 2 9 5 S 1017,4 40 0 0,0
16.06.2018 04:00:00 17,6 12,2 16,0 21,7 23,4 19,5 8 4 9 5 SE 1017,4 45 0 0,0
16.06.2018 03:00:00 18,0 12,4 16,8 22,1 23,6 19,5 6 4 8 4 ESE 1017,5 45 0 0,0
16.06.2018 02:00:00 19,1 12,4 18,0 22,6 23,9 19,5 5 3 9 5 ESE 1017,3 45 0 0,0
16.06.2018 01:00:00 19,0 12,6 17,7 23,0 24,2 19,5 4 2 5 3 ESE 1017,2 45 0 0,0
16.06.2018 00:00:00 19,5 12,7 17,7 23,6 24,4 19,5 2 1 5 3 SW 1017,2 45 0 0,0
15.06.2018 23:00:00 20,3 12,3 18,1 24,2 24,7 19,5 6 3 11 6 SSW 1017,1 45 0 0,0
15.06.2018 22:00:00 20,7 12,1 19,1 25,0 24,9 19,5 8 4 15 8 S 1017,1 10 0 0,0
15.06.2018 21:00:00 21,1 12,1 20,2 25,9 25,1 19,6 7 4 16 9 S 1016,7 40 0 0,0
15.06.2018 20:00:00 21,4 11,8 21,2 26,9 25,2 19,6 11 6 21 11 SSW 1016,8 10 0 0,0
15.06.2018 19:00:00 21,5 11,8 22,2 28,2 25,1 19,6 13 7 22 12 SSE 1016,5 10 0 0,0
15.06.2018 18:00:00 22,4 11,1 23,9 29,9 24,8 19,6 8 4 16 9 - 1016,5 10 21 0,0
15.06.2018 17:00:00 23,3 11,5 26,9 29,8 24,4 19,6 8 4 18 10 - 1016,5 10 19 0,0
15.06.2018 16:00:00 21,9 10,8 26,3 30,1 24,0 19,6 11 6 26 14 WNW 1016,8 10 33 0,0
15.06.2018 15:00:00 21,9 11,8 27,2 28,9 23,5 19,6 10 5 18 10 SW 1016,8 40 10 0,0
15.06.2018 14:00:00 20,9 12,0 27,9 28,6 23,0 19,6 6 3 16 9 WSW 1017,1 40 10 0,0
15.06.2018 13:00:00 21,4 12,8 28,9 28,3 22,4 19,6 10 6 18 10 NNW 1017,3 40 25 0,0
15.06.2018 12:00:00 19,6 12,4 28,9 25,6 22,1 19,6 9 5 16 9 WNW 1017,2 40 3 0,0
15.06.2018 11:00:00 18,8 12,7 25,4 23,6 21,9 19,5 11 6 23 12 NW 1017,2 10 0 0,0
15.06.2018 10:00:00 18,3 12,6 22,4 22,2 21,9 19,5 6 4 16 9 WNW 1017,2 30 0 0,0
15.06.2018 09:00:00 17,0 12,0 19,4 21,5 21,9 19,5 8 4 11 6 W 1016,8 10 0 0,0
15.06.2018 08:00:00 16,4 11,8 18,0 20,7 22,0 19,5 8 4 15 8 NW 1016,3 10 0 0,0
15.06.2018 07:00:00 15,9 11,3 16,6 20,2 22,2 19,5 6 3 9 5 W 1016,2 30 0 0,0
15.06.2018 06:00:00 15,6 10,9 14,9 20,2 22,5 19,5 8 4 13 7 WNW 1015,8 10 0 0,0
15.06.2018 05:00:00 15,7 10,4 15,0 20,4 22,8 19,5 9 5 15 8 NW 1015,6 10 0 0,0
15.06.2018 04:00:00 16,0 9,9 15,0 20,6 23,1 19,5 8 4 19 10 NW 1015,3 10 0 0,0
15.06.2018 03:00:00 16,3 9,0 15,5 20,9 23,4 19,5 13 7 26 14 NW 1015,2 45 0 0,0
15.06.2018 02:00:00 15,8 9,7 12,7 21,3 23,9 19,6 0 0 4 2 N 1014,5 10 0 0,0
15.06.2018 01:00:00 15,5 10,1 12,0 21,9 24,3 19,6 0 0 4 2 N 1014,5 10 0 0,0
15.06.2018 00:00:00 15,1 9,4 11,6 22,7 24,8 19,6 2 1 4 2 SW 1014,7 10 0 0,0
14.06.2018 23:00:00 16,9 9,4 12,4 23,9 25,2 19,6 2 1 4 2 SW 1014,5 10 0 0,0
14.06.2018 22:00:00 18,5 8,0 13,2 25,4 25,6 19,6 0 0 5 3 N 1014,1 10 0 0,0
14.06.2018 21:00:00 20,7 7,3 17,2 27,1 25,8 19,6 5 3 9 5 NW 1013,5 50 33 0,0
14.06.2018 20:00:00 21,9 6,4 21,1 28,8 25,8 19,7 9 5 16 9 WNW 1013,2 50 60 0,0
14.06.2018 19:00:00 22,6 6,3 23,2 30,5 25,6 19,7 11 6 22 12 SSW 1012,9 50 60 0,0
14.06.2018 18:00:00 22,6 6,5 25,6 31,8 25,2 19,7 13 7 26 14 SW 1013,3 10 60 0,0
14.06.2018 17:00:00 21,8 5,9 27,2 32,5 24,6 19,7 14 8 29 16 SW 1013,7 50 60 0,0
14.06.2018 16:00:00 22,3 5,4 28,1 32,6 23,9 19,7 11 6 29 16 WSW 1014,4 10 60 0,0
14.06.2018 15:00:00 20,6 6,3 25,7 32,5 23,0 19,7 12 6 28 15 SW 1014,8 50 60 0,0
14.06.2018 14:00:00 19,9 5,7 28,7 31,4 22,1 19,8 9 5 22 12 - 1015,3 10 60 0,0
14.06.2018 13:00:00 18,7 6,1 27,5 29,6 21,2 19,8 11 6 23 13 WSW 1015,6 50 60 0,0
14.06.2018 12:00:00 18,1 6,0 28,1 27,2 20,5 19,8 12 6 22 12 WNW 1016,2 50 60 0,0
14.06.2018 11:00:00 16,9 6,1 24,5 24,5 20,1 19,8 13 7 23 12 WSW 1016,4 10 36 0,0
14.06.2018 10:00:00 15,5 5,8 19,0 21,7 19,8 19,8 11 6 23 13 W 1016,5 50 24 0,0
14.06.2018 09:00:00 15,2 6,6 22,0 19,8 19,7 19,8 11 6 18 10 WNW 1016,5 10 31 0,0
14.06.2018 08:00:00 13,9 8,3 16,1 18,1 19,8 19,8 13 7 18 10 W 1016,4 10 0 0,0
14.06.2018 07:00:00 13,4 7,8 14,2 17,4 20,0 19,8 8 4 14 7 WNW 1016,4 50 0 0,0

tt = Température de l'air
td = dewpoint
tt 5cm = Température de l'air 5cm
tt -5cm = Température de l'air -5cm
tt -20cm = Température de l'air -20cm
tt -100cm = Température de l'air -100cm
ff = Vitesse du vent
fx = gusts
dd = Direction du vent
ppp = reduced air pressure
vv = visibility
sd = Ensoleillement
rr = Quantités de précipitations

stations d'obs. à proximité